Regional Weather Roundup
Issued by NWS Sterling, VA

Home | Current Version | Previous Version | Text Only | Print | Product List | Glossary Off
Versions: 1 2 3 4 5 6 7 8 9 10 11 12 13 14 15 16 17 18 19 20 21 22 23 24 25 26 27 28 29

000
ASUS41 KLWX 191411
RWRLWX

REGIONAL WEATHER ROUNDUP
NATIONAL WEATHER SERVICE BALTIMORE MD/WASHINGTON DC
1000 AM EDT THU OCT 19 2017

Note: "FAIR" indicates few or no clouds below 12,000 feet
with no significant weather and/or obstructions to visibility.
 TC=TEMPERATURE CELSIUS

 * =Non NWS site. Station does not report precipitation (e.g. rain,
    snow, etc.), thunder, or fog.

DCZ001-MDZ009-015-VAZ040>042-051-053>054-191500-
WASHINGTON METRO

CITY           SKY/WX    TMP DP  RH WIND       PRES   REMARKS
WASHINGTON NAT MOSUNNY   58  51  78 S7        30.29S
DULLES         MOSUNNY   52  45  77 SW5       30.28S
ANDREWS AFB    SUNNY     63  46  55 SW5       30.33R
FT BELVOIR     SUNNY     56  51  83 CALM      30.29S
QUANTICO       MOSUNNY   58  47  66 S9        30.30S
COLLEGE PARK*  SUNNY     54  48  81 CALM      30.28S
LEESBURG*      SUNNY     52  46  82 CALM      30.29S
MANASSAS*      SUNNY     51  45  79 S6        30.29S
GAITHERSBURG*  SUNNY     56  45  66 W5        30.29R

$$

MDZ006>007-011-014-191500-
BALTIMORE METRO

CITY           SKY/WX    TMP DP  RH WIND       PRES   REMARKS
BWI AIRPORT    MOSUNNY   57  50  77 SW5       30.28S
MD SCIENCE CTR   N/A     58  49  72 MISG      30.28S
MARTIN STATE   MOSUNNY   57  54  88 S5        30.30S
ANNAPOLIS      SUNNY     61  53  75 SW5       30.29R
FORT MEADE*    SUNNY     48  46  93 CALM      30.31S

$$

MDZ012-015-019>023-191500-
MARYLAND EASTERN SHORE

CITY           SKY/WX    TMP DP  RH WIND       PRES   REMARKS
OCEAN CITY     SUNNY     63  55  75 W5        30.30S HAZE
SALISBURY      SUNNY     62  53  72 S6        30.29S
CAMBRIDGE*     SUNNY     61  55  82 CALM      30.30R
EASTON*        MOSUNNY   63  55  77 SW7       30.33R

$$

MDZ017>025-191500-
SOUTHERN MARYLAND

CITY           SKY/WX    TMP DP  RH WIND       PRES   REMARKS
PATUXENT RIVER MOSUNNY   61  54  77 SW7       30.30R
ST INIGOES     SUNNY     63  55  75 SW8       30.30R
LEONARDTOWN*   NOT AVBL

$$

MDZ003>005-191500-
NORTH CENTRAL MARYLAND

CITY           SKY/WX    TMP DP  RH WIND       PRES   REMARKS
FREDERICK*     SUNNY     54  46  76 S5        30.30S
HAGERSTOWN APT SUNNY     55  44  66 S6        30.27R
WESTMINSTER*   SUNNY     55  45  67 SW6       30.27R

$$

MDZ501>502-191500-
WESTERN MARYLAND

CITY           SKY/WX    TMP DP  RH WIND       PRES   REMARKS
OAKLAND*       SUNNY     52  37  58 SW7       30.25S
CUMBERLAND*    MOSUNNY   45  45 100 CALM      30.30F

$$

VAZ025>031-191500-
SHENANDOAH VALLEY

CITY           SKY/WX    TMP DP  RH WIND       PRES   REMARKS
WINCHESTER*    SUNNY     54  43  66 SW5       30.27S
FRONT ROYAL*   SUNNY     55  43  62 S5        30.26S
LURAY*         SUNNY     54  45  71 CALM      30.28S
NEW MARKET*    SUNNY     53  42  66 SW5       30.28S
STAUNTON*      SUNNY     53  40  62 S3        30.30F
WAYNESBORO*    SUNNY     55  43  65 CALM      30.29F

$$

WVZ021-048>050-054>055-191500-
EASTERN WEST VIRGINIA PANHANDLE

CITY           SKY/WX    TMP DP  RH WIND       PRES   REMARKS
MARTINSBURG    SUNNY     51  44  77 CALM      30.27R
PETERSBURG*    SUNNY     47  42  83 CALM      30.28S

$$

VAZ036>039-050-191500-
CENTRAL FOOTHILLS

CITY           SKY/WX    TMP DP  RH WIND       PRES   REMARKS
CHARLOTTESVILL SUNNY     55  45  68 SW5       30.28R
CULPEPER*      SUNNY     51  43  73 CALM      30.29S
ORANGE*        SUNNY     52  43  71 S5        30.28S
GORDONSVILLE*  SUNNY     52  46  80 SW5       30.28S
WARRENTON*     SUNNY     54  43  66 S3        30.28S

$$

VAZ055>057-191500-
NORTH AND CENTRAL PIEDMONT

CITY           SKY/WX    TMP DP  RH WIND       PRES   REMARKS
FREDERICKSBRG* SUNNY     57  46  68 CALM      30.29S
STAFFORD*      SUNNY     53  49  84 S3        30.33S

$$

NCZ024-NYZ072-PAZ021-071-VAZ022-071-191500-
OTHER REGIONAL OBSERVATIONS

CITY           SKY/WX    TMP DP  RH WIND       PRES   REMARKS
NEW YORK CITY  SUNNY     61  45  55 CALM      30.27F
PHILADELPHIA   MOSUNNY   58  50  75 SW8       30.28S
PITTSBURGH     MOSUNNY   55  44  66 S5        30.23R
ROANOKE        SUNNY     53  44  71 NW3       30.34S
RICHMOND       MOSUNNY   57  53  86 SW8       30.31R
RALEIGH        MOSUNNY   58  53  84 CALM      30.33R

$$

ANZ530>537-191500-
MARINE OBSERVATIONS

STATION/POSITION TIME  TEMP    WIND        PRES
                       AIR SEA DIR/SP/G
                 (UTC) (F)     (DEG/KT/KT) (MB)
THOMAS PT LIGHT  1400   59 67  220/ 10/ 11   N/A
BALT KEY BRIDGE  1348   55     240/  4/  5 1025.5S
COVE POINT       1348   61     250/  7/ 11 1026.6R
LEWISETTA        1348   60 64  270/  7/  8 1025.9R
SOLOMONS ISLAND  1348   62 69  230/  8/ 10 1025.7R
PINEY POINT      1336          260/  6/  8   N/A

$$





USA.gov is the U.S. government's official web portal to all federal, state and local government web resources and services.